THY9YQ ULLI-LTFM

Flight info

Callsign THY9YQ
Flight time N/A
Altitude 36000
Route TURAL1D/10L TURAL L870 RESMO DCT KOLEV DCT VALGA M985 ERIVA DCT BOKSU M985 SUWGI DCT PODAN DCT KEKED/N0461F370 DCT BADOR DCT TIMUR L606 GASRU T390 RILEX
Aircraft B738/M-SDE2E3FGHIRWXY/LB1

Departure

Time 2026-05-07 18:27
Airport Pulkovo Airport (ULLI)

Arrival

Time N/A
Airport İstanbul Airport (LTFM)
Time Latitude Longitude Altitude Speed Heading
2026-05-07 17:45 59.80056 30.26792 78 ft 0 kts 107°
2026-05-07 18:15 59.80059 30.26776 81 ft 4 kts 102°
2026-05-07 18:15 59.80060 30.26725 81 ft 4 kts 71°
2026-05-07 18:16 59.80029 30.26663 80 ft 0 kts 16°
2026-05-07 18:20 59.80031 30.26664 82 ft 2 kts 16°
2026-05-07 18:21 59.80074 30.26690 81 ft 8 kts 16°
2026-05-07 18:21 59.80127 30.26721 82 ft 8 kts 16°
2026-05-07 18:21 59.80180 30.26752 79 ft 8 kts 17°
2026-05-07 18:21 59.80243 30.26789 81 ft 10 kts 17°
2026-05-07 18:22 59.80311 30.26830 80 ft 10 kts 17°
2026-05-07 18:22 59.80356 30.26856 79 ft 10 kts 13°
2026-05-07 18:22 59.80414 30.26741 79 ft 10 kts 288°
2026-05-07 18:22 59.80433 30.26613 80 ft 10 kts 286°
2026-05-07 18:23 59.80454 30.26469 79 ft 11 kts 286°
2026-05-07 18:23 59.80478 30.26305 79 ft 13 kts 286°
2026-05-07 18:23 59.80511 30.26088 70 ft 18 kts 287°
2026-05-07 18:23 59.80548 30.25843 69 ft 18 kts 287°
2026-05-07 18:24 59.80584 30.25605 71 ft 18 kts 286°
2026-05-07 18:24 59.80618 30.25374 72 ft 17 kts 286°
2026-05-07 18:24 59.80652 30.25152 68 ft 16 kts 287°
2026-05-07 18:24 59.80684 30.24938 66 ft 16 kts 286°
2026-05-07 18:25 59.80715 30.24733 69 ft 15 kts 287°
2026-05-07 18:25 59.80786 30.24599 66 ft 15 kts 342°
2026-05-07 18:25 59.80885 30.24568 64 ft 14 kts 349°
2026-05-07 18:25 59.80951 30.24595 65 ft 10 kts 53°
2026-05-07 18:26 59.80950 30.24708 62 ft 0 kts 105°
2026-05-07 18:26 59.80906 30.25009 61 ft 62 kts 107°
2026-05-07 18:27 59.80702 30.26367 69 ft 140 kts 106°
2026-05-07 18:27 59.80366 30.28630 234 ft 194 kts 107°
2026-05-07 18:27 59.79942 30.31332 910 ft 213 kts 107°
2026-05-07 18:27 59.79655 30.33220 1417 ft 220 kts 105°
2026-05-07 18:28 59.79071 30.37186 2244 ft 231 kts 105°
2026-05-07 18:28 59.78618 30.40273 2915 ft 240 kts 104°
2026-05-07 18:28 59.78143 30.43507 3583 ft 246 kts 104°
2026-05-07 18:28 59.77655 30.46771 4234 ft 247 kts 105°
2026-05-07 18:29 59.77162 30.50052 4912 ft 249 kts 104°
2026-05-07 18:29 59.76923 30.53425 5521 ft 248 kts 79°
2026-05-07 18:29 59.77578 30.56513 6200 ft 245 kts 49°
2026-05-07 18:29 59.78906 30.58629 6856 ft 248 kts 25°
2026-05-07 18:30 59.80549 30.59778 7520 ft 254 kts 16°
2026-05-07 18:30 59.82276 30.60737 8171 ft 261 kts 10°
2026-05-07 18:30 59.84074 30.60603 8791 ft 262 kts 341°
2026-05-07 18:30 59.85616 30.58743 9477 ft 262 kts 314°
2026-05-07 18:31 59.86599 30.55731 10143 ft 264 kts 291°
2026-05-07 18:31 59.87155 30.52247 10784 ft 265 kts 287°
2026-05-07 18:31 59.87653 30.48697 11397 ft 269 kts 281°
2026-05-07 18:31 59.87636 30.44981 12138 ft 270 kts 260°
2026-05-07 18:32 59.87277 30.41314 12948 ft 270 kts 260°
2026-05-07 18:32 59.86919 30.37638 13727 ft 271 kts 260°
2026-05-07 18:32 59.86566 30.33959 14439 ft 271 kts 260°
2026-05-07 18:32 59.86211 30.30284 15173 ft 271 kts 257°
2026-05-07 18:33 59.85646 30.26661 15509 ft 287 kts 251°
2026-05-07 18:33 59.84913 30.22826 15662 ft 307 kts 250°
2026-05-07 18:33 59.84652 30.21466 15719 ft 313 kts 250°
2026-05-07 18:34 59.82662 30.10807 16062 ft 358 kts 251°
2026-05-07 18:34 59.81801 30.06119 16204 ft 373 kts 251°
2026-05-07 18:34 59.80901 30.01215 16597 ft 381 kts 251°
2026-05-07 18:34 59.79990 29.96261 17232 ft 381 kts 251°
2026-05-07 18:35 59.79078 29.91310 17914 ft 381 kts 250°
2026-05-07 18:35 59.78163 29.86360 18510 ft 383 kts 250°
2026-05-07 18:35 59.77245 29.81401 19028 ft 384 kts 250°
2026-05-07 18:35 59.76321 29.76425 19579 ft 384 kts 250°
2026-05-07 18:36 59.75396 29.71455 20120 ft 384 kts 250°
2026-05-07 18:36 59.74468 29.66483 20608 ft 385 kts 250°
2026-05-07 18:36 59.73536 29.61501 21104 ft 386 kts 250°
2026-05-07 18:36 59.72599 29.56505 21593 ft 387 kts 250°
2026-05-07 18:37 59.71656 29.51491 22070 ft 388 kts 250°
2026-05-07 18:37 59.70712 29.46484 22539 ft 389 kts 250°
2026-05-07 18:37 59.69761 29.41449 23001 ft 390 kts 250°
2026-05-07 18:37 59.68805 29.36406 23445 ft 391 kts 249°
2026-05-07 18:38 59.67845 29.31346 23782 ft 395 kts 250°
2026-05-07 18:38 59.66873 29.26243 24069 ft 398 kts 249°
2026-05-07 18:38 59.65894 29.21117 24428 ft 398 kts 249°
2026-05-07 18:38 59.64911 29.15983 24779 ft 399 kts 249°
2026-05-07 18:39 59.63926 29.10843 25085 ft 401 kts 249°
2026-05-07 18:39 59.62931 29.05675 25384 ft 403 kts 249°
2026-05-07 18:39 59.61938 29.00490 25681 ft 404 kts 250°
2026-05-07 18:39 59.60990 28.95256 25976 ft 406 kts 250°
2026-05-07 18:40 59.60060 28.89978 26227 ft 407 kts 251°
2026-05-07 18:40 59.59131 28.84679 26521 ft 408 kts 250°
2026-05-07 18:40 59.58209 28.79460 26900 ft 407 kts 250°
2026-05-07 18:40 59.57265 28.74153 27378 ft 404 kts 250°
2026-05-07 18:41 59.56330 28.68936 27851 ft 402 kts 250°
2026-05-07 18:41 59.55398 28.63753 28263 ft 400 kts 250°
2026-05-07 18:41 59.54479 28.58661 28638 ft 399 kts 250°
2026-05-07 18:41 59.53548 28.53522 29056 ft 398 kts 250°
2026-05-07 18:42 59.52621 28.48390 29480 ft 396 kts 250°
2026-05-07 18:42 59.51707 28.43283 29883 ft 395 kts 250°
2026-05-07 18:42 59.50796 28.38181 30293 ft 394 kts 250°
2026-05-07 18:42 59.49881 28.33065 30413 ft 398 kts 250°
2026-05-07 18:43 59.48956 28.27910 30608 ft 400 kts 250°
2026-05-07 18:43 59.48028 28.22757 30955 ft 398 kts 250°
2026-05-07 18:43 59.47104 28.17642 31323 ft 396 kts 250°
2026-05-07 18:43 59.46179 28.12537 31572 ft 395 kts 250°
2026-05-07 18:44 59.45249 28.07471 31834 ft 396 kts 249°
2026-05-07 18:44 59.44283 28.02420 32106 ft 395 kts 249°
2026-05-07 18:44 59.43242 27.97425 32401 ft 395 kts 243°
2026-05-07 18:44 59.41742 27.92908 32668 ft 396 kts 233°
2026-05-07 18:45 59.39912 27.88846 32952 ft 398 kts 228°
2026-05-07 18:45 59.37831 27.85237 33181 ft 403 kts 220°
2026-05-07 18:45 59.35507 27.82114 33451 ft 404 kts 219°
2026-05-07 18:45 59.33182 27.79047 33732 ft 403 kts 219°
2026-05-07 18:46 59.30856 27.75984 33983 ft 403 kts 219°
2026-05-07 18:46 59.28561 27.72956 34180 ft 403 kts 219°
2026-05-07 18:46 59.26229 27.69873 34354 ft 404 kts 219°
2026-05-07 18:46 59.23905 27.66797 34514 ft 404 kts 219°
2026-05-07 18:47 59.21580 27.63719 34734 ft 403 kts 219°
2026-05-07 18:47 59.19256 27.60644 34872 ft 404 kts 219°
2026-05-07 18:47 59.16921 27.57558 35009 ft 406 kts 219°
2026-05-07 18:48 59.09640 27.47961 35394 ft 410 kts 218°
2026-05-07 18:48 59.07277 27.44860 35555 ft 410 kts 218°
2026-05-07 18:48 59.04904 27.41750 35718 ft 411 kts 218°
2026-05-07 18:49 59.02534 27.38650 35856 ft 412 kts 218°
2026-05-07 18:49 58.97821 27.32501 36054 ft 408 kts 218°
2026-05-07 18:50 58.93083 27.26338 36085 ft 412 kts 218°
2026-05-07 18:50 58.88309 27.20146 36095 ft 414 kts 218°
2026-05-07 18:51 58.83512 27.13948 36090 ft 416 kts 218°
2026-05-07 18:51 58.78685 27.07734 36090 ft 416 kts 218°
2026-05-07 18:52 58.73861 27.01545 36083 ft 416 kts 218°
2026-05-07 18:52 58.69047 26.95390 36083 ft 415 kts 218°
2026-05-07 18:53 58.65050 26.90293 36084 ft 414 kts 218°
2026-05-07 18:53 58.60250 26.84192 36077 ft 414 kts 218°
2026-05-07 18:54 58.55451 26.78113 36078 ft 413 kts 218°
2026-05-07 18:54 58.50653 26.72055 36057 ft 412 kts 218°
2026-05-07 18:55 58.45875 26.66042 36074 ft 411 kts 218°
2026-05-07 18:55 58.41097 26.60048 36074 ft 411 kts 218°
2026-05-07 18:56 58.36316 26.54071 36076 ft 411 kts 218°
2026-05-07 18:56 58.31531 26.48109 36077 ft 411 kts 217°
2026-05-07 18:57 58.26772 26.42197 36054 ft 411 kts 217°
2026-05-07 18:57 58.21983 26.36269 36066 ft 411 kts 217°
2026-05-07 18:58 58.17193 26.30358 36073 ft 411 kts 217°
2026-05-07 18:58 58.12394 26.24456 36072 ft 411 kts 217°
2026-05-07 18:59 58.07589 26.18564 36068 ft 412 kts 217°
2026-05-07 18:59 58.02773 26.12679 36049 ft 412 kts 217°
2026-05-07 19:00 57.97967 26.06825 36067 ft 411 kts 217°
2026-05-07 19:00 57.93177 26.01008 36066 ft 411 kts 217°
2026-05-07 19:01 57.88375 25.95194 36072 ft 411 kts 217°
2026-05-07 19:01 57.83454 25.89654 36063 ft 414 kts 211°
2026-05-07 19:02 57.78243 25.84985 36043 ft 415 kts 210°
2026-05-07 19:02 57.73028 25.80401 36053 ft 413 kts 210°
2026-05-07 19:03 57.67833 25.75788 36066 ft 413 kts 210°
2026-05-07 19:03 57.62653 25.71163 36062 ft 412 kts 210°
2026-05-07 19:04 57.57476 25.66547 36064 ft 412 kts 210°
2026-05-07 19:04 57.52290 25.61936 36053 ft 412 kts 210°
2026-05-07 19:05 57.47117 25.57353 36055 ft 412 kts 210°
2026-05-07 19:05 57.41972 25.52809 36061 ft 412 kts 210°